GW1883 Weather Reports


Display with metric or nautical units.
time (UTC)temp
F
wind
direction
speed
MPH
gust
MPH
rain 1hr
in
rain 24hr
in
rain mn
in
humidity
%
barometer
mb
20260505173803 79 169 4.0 13.0 0.00 0.00 0.00 56 1017.0
20260505173703 79 165 5.0 13.0 0.00 0.00 0.00 54 1016.9
20260505173604 79 96 4.0 13.0 0.00 0.00 0.00 53 1017.0
20260505173506 79 159 5.0 13.0 0.00 0.00 0.00 55 1017.1
20260505173303 79 194 5.0 11.0 0.00 0.00 0.00 54 1017.1
20260505173204 79 155 4.0 9.0 0.00 0.00 0.00 53 1017.2
20260505173103 79 98 4.0 12.0 0.00 0.00 0.00 54 1017.3
20260505173006 79 80 4.0 12.0 0.00 0.00 0.00 54 1017.2
20260505172903 79 145 5.0 12.0 0.00 0.00 0.00 56 1017.3
20260505172803 79 169 4.0 12.0 0.00 0.00 0.00 54 1017.4
20260505172703 79 145 3.0 12.0 0.00 0.00 0.00 56 1017.4
20260505172603 79 154 3.0 12.0 0.00 0.00 0.00 56 1017.3
20260505172506 78 92 4.0 12.0 0.00 0.00 0.00 55 1017.4
20260505172305 78 98 6.0 12.0 0.00 0.00 0.00 55 1017.5
20260505172203 78 105 5.0 12.0 0.00 0.00 0.00 55 1017.5
20260505172103 78 146 4.0 13.0 0.00 0.00 0.00 55 1017.5
20260505172006 78 234 5.0 11.0 0.00 0.00 0.00 55 1017.5
20260505171903 78 74 6.0 11.0 0.00 0.00 0.00 53 1017.5
20260505171803 78 155 5.0 11.0 0.00 0.00 0.00 54 1017.4
20260505171702 78 136 5.0 11.0 0.00 0.00 0.00 54 1017.5
20260505171604 78 48 5.0 11.0 0.00 0.00 0.00 54 1017.5
20260505171506 78 188 8.0 11.0 0.00 0.00 0.00 53 1017.5
20260505171403 78 159 7.0 11.0 0.00 0.00 0.00 54 1017.5
20260505171303 78 173 6.0 11.0 0.00 0.00 0.00 54 1017.5
20260505171204 78 175 6.0 11.0 0.00 0.00 0.00 54 1017.4
20260505170903 78 203 3.0 14.0 0.00 0.00 0.00 55 1017.5
20260505170804 78 82 4.0 14.0 0.00 0.00 0.00 54 1017.5
20260505170703 78 145 5.0 14.0 0.00 0.00 0.00 53 1017.5
20260505170604 78 215 5.0 14.0 0.00 0.00 0.00 54 1017.6
20260505170506 78 142 4.0 14.0 0.00 0.00 0.00 53 1017.6
20260505170402 78 118 4.0 14.0 0.00 0.00 0.00 53 1017.7
20260505170304 78 178 5.0 14.0 0.00 0.00 0.00 54 1017.7
20260505170204 78 163 6.0 14.0 0.00 0.00 0.00 54 1017.6
20260505170006 78 207 6.0 15.0 0.00 0.00 0.00 53 1017.6
20260505165903 78 195 4.0 9.0 0.00 0.00 0.00 53 1017.6
20260505165603 79 182 5.0 9.0 0.00 0.00 0.00 52 1017.6
20260505165505 79 159 6.0 9.0 0.00 0.00 0.00 52 1017.6
20260505165403 79 182 5.0 9.0 0.00 0.00 0.00 53 1017.6
20260505165306 79 175 4.0 8.0 0.00 0.00 0.00 53 1017.6
20260505165203 78 144 4.0 9.0 0.00 0.00 0.00 55 1017.7
20260505164903 78 77 3.0 10.0 0.00 0.00 0.00 54 1017.7
20260505164804 78 84 3.0 10.0 0.00 0.00 0.00 56 1017.7
20260505164603 78 165 3.0 10.0 0.00 0.00 0.00 54 1017.7
20260505164505 78 117 4.0 10.0 0.00 0.00 0.00 54 1017.8
20260505164403 77 144 5.0 10.0 0.00 0.00 0.00 54 1017.8
20260505164303 77 128 5.0 10.0 0.00 0.00 0.00 56 1017.7
20260505164203 77 177 7.0 10.0 0.00 0.00 0.00 55 1017.6
20260505164103 77 248 7.0 10.0 0.00 0.00 0.00 54 1017.7
20260505164006 77 186 5.0 9.0 0.00 0.00 0.00 56 1017.8
20260505163903 77 171 5.0 8.0 0.00 0.00 0.00 55 1017.8
20260505163603 77 212 4.0 10.0 0.00 0.00 0.00 56 1017.8
20260505163505 77 175 4.0 10.0 0.00 0.00 0.00 57 1017.9
20260505163403 77 167 2.0 10.0 0.00 0.00 0.00 56 1017.9
20260505163304 77 163 2.0 10.0 0.00 0.00 0.00 56 1017.9
20260505163203 77 133 3.0 10.0 0.00 0.00 0.00 56 1017.9
20260505163104 77 200 6.0 10.0 0.00 0.00 0.00 55 1017.9
20260505163009 77 205 7.0 10.0 0.00 0.00 0.00 55 1017.9
20260505162905 77 196 5.0 11.0 0.00 0.00 0.00 57 1018.0
20260505162803 77 182 3.0 10.0 0.00 0.00 0.00 55 1017.9
20260505162703 77 92 4.0 10.0 0.00 0.00 0.00 56 1018.0
20260505162603 76 204 4.0 10.0 0.00 0.00 0.00 54 1018.0
20260505162506 77 191 5.0 10.0 0.00 0.00 0.00 54 1018.0
20260505162403 77 116 6.0 10.0 0.00 0.00 0.00 54 1018.0
20260505162306 77 207 4.0 9.0 0.00 0.00 0.00 55 1018.1
20260505162203 77 175 2.0 9.0 0.00 0.00 0.00 55 1018.0
20260505162103 77 92 2.0 7.0 0.00 0.00 0.00 56 1018.2
20260505162006 76 174 2.0 9.0 0.00 0.00 0.00 56 1018.2
20260505161803 76 78 4.0 9.0 0.00 0.00 0.00 54 1018.2
20260505161703 76 186 4.0 10.0 0.00 0.00 0.00 56 1018.3
20260505161603 76 169 4.0 10.0 0.00 0.00 0.00 55 1018.2
20260505161506 76 167 4.0 10.0 0.00 0.00 0.00 55 1018.2
20260505161403 76 219 4.0 10.0 0.00 0.00 0.00 57 1018.2
20260505161303 76 231 5.0 10.0 0.00 0.00 0.00 56 1018.3
20260505161203 76 155 5.0 10.0 0.00 0.00 0.00 56 1018.3
20260505161103 76 212 5.0 10.0 0.00 0.00 0.00 56 1018.3
20260505161006 76 177 6.0 10.0 0.00 0.00 0.00 56 1018.3
20260505160904 76 192 6.0 10.0 0.00 0.00 0.00 56 1018.3
20260505160803 76 191 4.0 10.0 0.00 0.00 0.00 57 1018.3
20260505160703 76 198 4.0 8.0 0.00 0.00 0.00 58 1018.2
20260505160403 76 266 3.0 8.0 0.00 0.00 0.00 58 1018.3
20260505160303 76 140 3.0 7.0 0.00 0.00 0.00 59 1018.2
20260505160204 76 117 3.0 7.0 0.00 0.00 0.00 61 1018.2
20260505153203 76 173 4.0 10.0 0.00 0.00 0.00 60 1018.3
20260505153103 76 148 6.0 10.0 0.00 0.00 0.00 60 1018.3
20260505153006 76 205 6.0 10.0 0.00 0.00 0.00 60 1018.4
20260505152903 76 200 6.0 10.0 0.00 0.00 0.00 61 1018.3
20260505152803 76 154 5.0 10.0 0.00 0.00 0.00 60 1018.3
20260505152703 75 144 3.0 10.0 0.00 0.00 0.00 61 1018.3
20260505152604 75 111 4.0 10.0 0.00 0.00 0.00 61 1018.3
20260505152506 75 103 5.0 10.0 0.00 0.00 0.00 63 1018.3
20260505152305 75 88 1.0 6.0 0.00 0.00 0.00 62 1018.3
20260505152204 75 162 1.0 6.0 0.00 0.00 0.00 63 1018.3
20260505151903 75 56 3.0 9.0 0.00 0.00 0.00 62 1018.3
20260505151803 75 221 2.0 9.0 0.00 0.00 0.00 62 1018.3
20260505151403 75 149 3.0 10.0 0.00 0.00 0.00 64 1018.4
20260505151203 74 173 4.0 10.0 0.00 0.00 0.00 65 1018.3
20260505151103 74 59 3.0 10.0 0.00 0.00 0.00 64 1018.3
20260505151006 74 204 2.0 10.0 0.00 0.00 0.00 66 1018.3
20260505150803 74 163 2.0 10.0 0.00 0.00 0.00 64 1018.3
20260505150703 74 78 4.0 10.0 0.00 0.00 0.00 63 1018.3
20260505150404 74 135 4.0 9.0 0.00 0.00 0.00 64 1018.4
20260505150302 74 150 3.0 9.0 0.00 0.00 0.00 65 1018.4
20260505150203 74 128 4.0 9.0 0.00 0.00 0.00 64 1018.4
20260505140604 70 153 4.0 7.0 0.00 0.00 0.00 72 1018.2
20260505140506 70 174 4.0 7.0 0.00 0.00 0.00 71 1018.2
20260505140403 70 178 2.0 7.0 0.00 0.00 0.00 71 1018.2
20260505140302 70 219 2.0 7.0 0.00 0.00 0.00 73 1018.2
20260505140203 70 246 3.0 7.0 0.00 0.00 0.00 74 1018.2
20260505130302 62 162 2.0 4.0 0.00 0.00 0.00 90 1017.9
20260505130203 62 176 2.0 3.0 0.00 0.00 0.00 90 1018.0
20260505125006 60 190 1.0 3.0 0.00 0.00 0.00 94 1018.1
20260505124803 60 178 2.0 3.0 0.00 0.00 0.00 95 1018.1
20260505124703 60 194 2.0 3.0 0.00 0.00 0.00 95 1018.0
20260505124604 60 166 1.0 3.0 0.00 0.00 0.00 95 1018.1
20260505124505 60 171 1.0 2.0 0.00 0.00 0.00 96 1018.1
20260505124402 59 157 1.0 2.0 0.00 0.00 0.00 96 1018.2
20260505124303 59 150 1.0 2.0 0.00 0.00 0.00 96 1018.1
20260505124204 59 167 1.0 3.0 0.00 0.00 0.00 96 1018.1
20260505124103 59 167 1.0 4.0 0.00 0.00 0.00 96 1018.1
20260505124005 59 167 1.0 4.0 0.00 0.00 0.00 97 1018.2
20260505123802 59 182 1.0 4.0 0.00 0.00 0.00 97 1018.1
20260505123403 58 194 1.0 4.0 0.00 0.00 0.00 97 1018.0
20260505123303 58 203 2.0 4.0 0.00 0.00 0.00 97 1018.1
20260505123202 58 218 2.0 4.0 0.00 0.00 0.00 97 1018.0
20260505122903 57 200 2.0 3.0 0.00 0.00 0.00 97 1018.0
20260505122804 57 199 1.0 3.0 0.00 0.00 0.00 97 1018.0
20260505122703 57 152 1.0 3.0 0.00 0.00 0.00 97 1018.1
20260505122603 57 172 1.0 2.0 0.00 0.00 0.00 97 1018.0
20260505122506 57 139 1.0 2.0 0.00 0.00 0.00 97 1018.0
20260505122403 57 137 1.0 2.0 0.00 0.00 0.00 97 1018.1
20260505122305 56 153 0.0 1.0 0.00 0.00 0.00 97 1018.0
20260505122202 56 153 0.0 1.0 0.00 0.00 0.00 97 1018.1
20260505121903 56 153 0.0 0.0 0.00 0.00 0.00 97 1018.1
20260505121803 56 153 0.0 0.0 0.00 0.00 0.00 97 1018.0
20260505121704 56 153 0.0 0.0 0.00 0.00 0.00 97 1018.1
20260505121603 56 153 0.0 0.0 0.00 0.00 0.00 97 1018.0
20260505121506 56 153 0.0 0.0 0.00 0.00 0.00 97 1018.1
20260505121303 55 153 0.0 0.0 0.00 0.00 0.00 97 1018.0
20260505121203 55 153 0.0 0.0 0.00 0.00 0.00 97 1018.0
20260505121103 55 153 0.0 0.0 0.00 0.00 0.00 97 1017.9
20260505121005 55 153 0.0 0.0 0.00 0.00 0.00 97 1018.0
20260505120904 55 153 0.0 0.0 0.00 0.00 0.00 97 1018.0
20260505120803 55 153 0.0 0.0 0.00 0.00 0.00 97 1017.9
20260505120702 55 153 0.0 0.0 0.00 0.00 0.00 97 1018.0
20260505120603 54 153 0.0 0.0 0.00 0.00 0.00 97 1018.0
20260505120506 54 153 0.0 0.0 0.00 0.00 0.00 97 1018.0
20260505120302 54 153 0.0 0.0 0.00 0.00 0.00 97 1017.9
20260505120202 54 153 0.0 0.0 0.00 0.00 0.00 97 1017.9
20260505115703 53 153 0.0 1.0 0.00 0.00 0.00 97 1018.0
20260505115602 53 153 0.0 1.0 0.00 0.00 0.00 97 1017.9
20260505115505 53 153 0.0 1.0 0.00 0.00 0.00 97 1017.9
20260505114903 53 153 0.0 1.0 0.00 0.00 0.00 97 1017.9
20260505114803 53 153 0.0 1.0 0.00 0.00 0.00 97 1017.9
20260505114603 53 153 0.0 1.0 0.00 0.00 0.00 96 1017.9
20260505114505 52 153 0.0 1.0 0.00 0.00 0.00 96 1017.9
20260505114403 52 153 0.0 1.0 0.00 0.00 0.00 96 1017.9
20260505114304 52 153 0.0 1.0 0.00 0.00 0.00 96 1017.9
20260505114203 52 153 0.0 1.0 0.00 0.00 0.00 96 1017.9
20260505114005 52 153 0.0 1.0 0.00 0.00 0.00 96 1017.8
20260505113803 52 303 0.0 1.0 0.00 0.00 0.00 96 1017.8
20260505113704 52 302 0.0 1.0 0.00 0.00 0.00 96 1017.8
20260505113602 52 292 0.0 1.0 0.00 0.00 0.00 96 1017.8
20260505113506 52 330 0.0 0.0 0.00 0.00 0.00 96 1017.8
20260505113203 52 330 0.0 0.0 0.00 0.00 0.00 96 1017.8
20260505113103 52 330 0.0 0.0 0.00 0.00 0.00 96 1017.8
20260505113006 52 330 0.0 0.0 0.00 0.00 0.00 96 1017.8
20260505112902 51 330 0.0 0.0 0.00 0.00 0.00 96 1017.7
20260505112802 51 330 0.0 0.0 0.00 0.00 0.00 96 1017.7
20260505112703 51 330 0.0 0.0 0.00 0.00 0.00 96 1017.7
20260505112603 51 330 0.0 0.0 0.00 0.00 0.00 96 1017.8
20260505112505 51 330 0.0 1.0 0.00 0.00 0.00 96 1017.7
20260505112304 51 330 0.0 1.0 0.00 0.00 0.00 96 1017.7
20260505112203 51 330 0.0 1.0 0.00 0.00 0.00 96 1017.7
20260505112103 51 330 0.0 1.0 0.00 0.00 0.00 96 1017.7
20260505112006 51 330 0.0 1.0 0.00 0.00 0.00 96 1017.7
20260505111903 51 257 0.0 1.0 0.00 0.00 0.00 96 1017.7
20260505111804 51 257 0.0 1.0 0.00 0.00 0.00 96 1017.6
20260505111704 51 257 0.0 1.0 0.00 0.00 0.00 96 1017.6
20260505111602 51 242 0.0 0.0 0.00 0.00 0.00 96 1017.6
20260505111505 51 240 0.0 0.0 0.00 0.00 0.00 96 1017.7
20260505111403 51 240 0.0 0.0 0.00 0.00 0.00 96 1017.6
20260505111303 51 240 0.0 0.0 0.00 0.00 0.00 96 1017.6
20260505111203 51 240 0.0 0.0 0.00 0.00 0.00 96 1017.7
20260505110903 51 240 0.0 0.0 0.00 0.00 0.00 95 1017.6
20260505110802 51 240 0.0 0.0 0.00 0.00 0.00 95 1017.5
20260505110704 51 240 0.0 0.0 0.00 0.00 0.00 95 1017.5
20260505110604 51 240 0.0 0.0 0.00 0.00 0.00 95 1017.6
20260505110508 51 240 0.0 0.0 0.00 0.00 0.00 95 1017.5
20260505110403 51 240 0.0 1.0 0.00 0.00 0.00 95 1017.4
20260505110302 51 240 0.0 1.0 0.00 0.00 0.00 95 1017.5
20260505110203 51 240 0.0 1.0 0.00 0.00 0.00 95 1017.4
20260505102202 51 199 0.0 0.0 0.00 0.00 0.00 95 1016.9
20260505102101 51 199 0.0 0.0 0.00 0.00 0.00 95 1016.9
20260505102006 51 199 0.0 0.0 0.00 0.00 0.00 95 1016.9
20260505101905 51 199 0.0 0.0 0.00 0.00 0.00 95 1016.9
20260505101803 51 199 0.0 0.0 0.00 0.00 0.00 95 1016.8
20260505101702 51 199 0.0 0.0 0.00 0.00 0.00 95 1016.8
20260505101603 51 199 0.0 0.0 0.00 0.00 0.00 95 1016.8
20260505101505 51 199 0.0 0.0 0.00 0.00 0.00 95 1016.7
20260505101301 51 199 0.0 0.0 0.00 0.00 0.00 95 1016.8
20260505101202 51 199 0.0 0.0 0.00 0.00 0.00 95 1016.8
20260505101102 51 199 0.0 0.0 0.00 0.00 0.00 95 1016.8
20260505101006 51 199 0.0 0.0 0.00 0.00 0.00 95 1016.8
20260505100902 51 199 0.0 0.0 0.00 0.00 0.00 95 1016.8
20260505100803 51 199 0.0 0.0 0.00 0.00 0.00 95 1016.8
20260505100601 51 199 0.0 0.0 0.00 0.00 0.00 95 1016.8
20260505100504 51 199 0.0 0.0 0.00 0.00 0.00 95 1016.8
20260505100401 51 199 0.0 0.0 0.00 0.00 0.00 95 1016.8
20260505100302 51 199 0.0 0.0 0.00 0.00 0.00 95 1016.8
20260505100202 51 199 0.0 0.0 0.00 0.00 0.00 95 1016.7
20260505095904 51 199 0.0 0.0 0.00 0.00 0.00 95 1016.8
20260505095802 51 199 0.0 0.0 0.00 0.00 0.00 95 1016.7
20260505095704 51 199 0.0 0.0 0.00 0.00 0.00 95 1016.8
20260505095603 51 199 0.0 0.0 0.00 0.00 0.00 95 1016.7
20260505095506 51 199 0.0 0.0 0.00 0.00 0.00 95 1016.7
20260505095304 51 199 0.0 0.0 0.00 0.00 0.00 95 1016.7
20260505095203 51 199 0.0 0.0 0.00 0.00 0.00 95 1016.7
20260505095103 51 199 0.0 0.0 0.00 0.00 0.00 95 1016.7
20260505095005 51 199 0.0 0.0 0.00 0.00 0.00 95 1016.7
20260505094904 51 199 0.0 0.0 0.00 0.00 0.00 95 1016.7
20260505094802 51 199 0.0 0.0 0.00 0.00 0.00 95 1016.7
20260505094703 52 199 0.0 0.0 0.00 0.00 0.00 95 1016.7
20260505094302 52 199 0.0 0.0 0.00 0.00 0.00 94 1016.7
20260505094203 52 199 0.0 0.0 0.00 0.00 0.00 94 1016.7
20260505094104 52 199 0.0 0.0 0.00 0.00 0.00 94 1016.7
20260505094005 52 199 0.0 0.0 0.00 0.00 0.00 94 1016.8
20260505093903 52 199 0.0 0.0 0.00 0.00 0.00 94 1016.7
20260505093603 52 199 0.0 0.0 0.00 0.00 0.00 94 1016.6
20260505093505 52 199 0.0 0.0 0.00 0.00 0.00 94 1016.7
20260505093404 52 199 0.0 0.0 0.00 0.00 0.00 94 1016.7
20260505093302 52 199 0.0 0.0 0.00 0.00 0.00 94 1016.7
20260505093203 52 199 0.0 0.0 0.00 0.00 0.00 94 1016.7
20260505093103 52 199 0.0 0.0 0.00 0.00 0.00 94 1016.6
20260505093006 52 199 0.0 0.0 0.00 0.00 0.00 94 1016.7
20260505092904 52 199 0.0 0.0 0.00 0.00 0.00 94 1016.7
20260505092803 52 199 0.0 0.0 0.00 0.00 0.00 95 1016.7
20260505092703 52 199 0.0 0.0 0.00 0.00 0.00 95 1016.7
20260505092602 52 199 0.0 0.0 0.00 0.00 0.00 95 1016.7
20260505092505 52 199 0.0 0.0 0.00 0.00 0.00 95 1016.7
20260505092403 52 199 0.0 0.0 0.00 0.00 0.00 95 1016.6
20260505092305 52 199 0.0 0.0 0.00 0.00 0.00 95 1016.6
20260505092203 52 199 0.0 0.0 0.00 0.00 0.00 95 1016.7
20260505092103 52 199 0.0 0.0 0.00 0.00 0.00 95 1016.7
20260505092006 52 199 0.0 0.0 0.00 0.00 0.00 95 1016.7
20260505091902 52 199 0.0 0.0 0.00 0.00 0.00 95 1016.7
20260505091804 52 199 0.0 0.0 0.00 0.00 0.00 95 1016.7
20260505091703 52 199 0.0 0.0 0.00 0.00 0.00 94 1016.6
20260505091604 52 199 0.0 0.0 0.00 0.00 0.00 94 1016.6
20260505091505 52 199 0.0 0.0 0.00 0.00 0.00 94 1016.7
20260505091404 52 199 0.0 0.0 0.00 0.00 0.00 94 1016.6
20260505091302 52 199 0.0 0.0 0.00 0.00 0.00 94 1016.7
20260505091203 52 199 0.0 0.0 0.00 0.00 0.00 94 1016.7
20260505091103 52 199 0.0 0.0 0.00 0.00 0.00 94 1016.6
20260505091006 52 199 0.0 0.0 0.00 0.00 0.00 94 1016.7
20260505090803 52 199 0.0 0.0 0.00 0.00 0.00 94 1016.7
20260505090603 52 199 0.0 0.0 0.00 0.00 0.00 94 1016.6
20260505090506 52 199 0.0 0.0 0.00 0.00 0.00 94 1016.7
20260505090403 52 199 0.0 0.0 0.00 0.00 0.00 94 1016.7
20260505090302 52 199 0.0 0.0 0.00 0.00 0.00 94 1016.6
20260505090203 52 199 0.0 0.0 0.00 0.00 0.00 94 1016.7
20260505090006 52 199 0.0 0.0 0.00 0.00 0.00 94 1016.6
20260505085602 53 199 0.0 0.0 0.00 0.00 0.00 94 1016.5
20260505085505 53 199 0.0 0.0 0.00 0.00 0.00 94 1016.6
20260505085201 53 199 0.0 0.0 0.00 0.00 0.00 94 1016.6
20260505085101 53 199 0.0 0.0 0.00 0.00 0.00 95 1016.5
20260505085005 53 199 0.0 0.0 0.00 0.00 0.00 94 1016.5
20260505084902 53 199 0.0 0.0 0.00 0.00 0.00 94 1016.5
20260505084802 53 199 0.0 0.0 0.00 0.00 0.00 94 1016.5
20260505084702 53 199 0.0 0.0 0.00 0.00 0.00 94 1016.5
20260505084602 53 199 0.0 0.0 0.00 0.00 0.00 95 1016.5
20260505084506 53 199 0.0 0.0 0.00 0.00 0.00 94 1016.5
20260505084402 53 199 0.0 0.0 0.00 0.00 0.00 95 1016.5
20260505084303 53 199 0.0 0.0 0.00 0.00 0.00 94 1016.5
20260505084202 53 199 0.0 0.0 0.00 0.00 0.00 94 1016.5
20260505083901 53 199 0.0 0.0 0.00 0.00 0.00 94 1016.5
20260505083802 53 199 0.0 0.0 0.00 0.00 0.00 94 1016.5
20260505083703 53 199 0.0 0.0 0.00 0.00 0.00 94 1016.5
20260505083602 53 199 0.0 0.0 0.00 0.00 0.00 94 1016.5
20260505083505 53 199 0.0 0.0 0.00 0.00 0.00 94 1016.5
20260505083403 53 199 0.0 0.0 0.00 0.00 0.00 94 1016.5
20260505083302 53 199 0.0 0.0 0.00 0.00 0.00 94 1016.5
20260505083202 53 199 0.0 0.0 0.00 0.00 0.00 94 1016.4
20260505083102 53 199 0.0 0.0 0.00 0.00 0.00 94 1016.5
20260505083006 53 199 0.0 0.0 0.00 0.00 0.00 94 1016.5
20260505082902 53 199 0.0 0.0 0.00 0.00 0.00 94 1016.4
20260505082801 53 199 0.0 0.0 0.00 0.00 0.00 94 1016.4
20260505082703 53 199 0.0 0.0 0.00 0.00 0.00 94 1016.4
20260505082602 53 199 0.0 0.0 0.00 0.00 0.00 94 1016.4
20260505082505 53 199 0.0 0.0 0.00 0.00 0.00 94 1016.4
20260505082402 53 199 0.0 0.0 0.00 0.00 0.00 94 1016.4
20260505082101 53 199 0.0 0.0 0.00 0.00 0.00 94 1016.3
20260505082005 53 199 0.0 0.0 0.00 0.00 0.00 94 1016.3
20260505081901 53 199 0.0 0.0 0.00 0.00 0.00 94 1016.3
20260505081804 53 199 0.0 0.0 0.00 0.00 0.00 94 1016.3
20260505081702 53 199 0.0 0.0 0.00 0.00 0.00 94 1016.2
20260505081602 53 199 0.0 0.0 0.00 0.00 0.00 94 1016.2
20260505081505 53 199 0.0 0.0 0.00 0.00 0.00 94 1016.2
20260505081402 53 199 0.0 0.0 0.00 0.00 0.00 94 1016.3
20260505081201 53 199 0.0 0.0 0.00 0.00 0.00 94 1016.3
20260505081101 53 199 0.0 0.0 0.00 0.00 0.00 94 1016.3
20260505081005 53 199 0.0 0.0 0.00 0.00 0.00 94 1016.3
20260505080802 53 199 0.0 0.0 0.00 0.00 0.00 94 1016.2
20260505080703 53 199 0.0 0.0 0.00 0.00 0.00 94 1016.2
20260505080601 53 199 0.0 0.0 0.00 0.00 0.00 94 1016.3
20260505080505 53 199 0.0 0.0 0.00 0.00 0.00 94 1016.3
20260505080402 53 199 0.0 0.0 0.00 0.00 0.00 94 1016.3
20260505080301 53 199 0.0 0.0 0.00 0.00 0.00 94 1016.2
20260505080202 53 199 0.0 0.0 0.00 0.00 0.00 94 1016.2
20260505080005 53 199 0.0 0.0 0.00 0.00 0.00 94 1016.2
20260505075901 53 199 0.0 0.0 0.00 0.00 0.00 94 1016.2
20260505075802 53 199 0.0 0.0 0.00 0.00 0.00 93 1016.2
20260505075701 53 199 0.0 0.0 0.00 0.00 0.00 93 1016.2
20260505075601 53 199 0.0 0.0 0.00 0.00 0.00 93 1016.2
20260505075505 53 199 0.0 0.0 0.00 0.00 0.00 93 1016.3
20260505075304 53 199 0.0 0.0 0.00 0.00 0.00 93 1016.2
20260505075202 53 199 0.0 0.0 0.00 0.00 0.00 93 1016.3
20260505075102 53 199 0.0 0.0 0.00 0.00 0.00 93 1016.3
20260505075006 53 199 0.0 0.0 0.00 0.00 0.00 93 1016.3
20260505074902 53 199 0.0 0.0 0.00 0.00 0.00 93 1016.3
20260505074801 53 199 0.0 0.0 0.00 0.00 0.00 93 1016.2
20260505074702 53 199 0.0 0.0 0.00 0.00 0.00 93 1016.2
20260505074601 53 199 0.0 0.0 0.00 0.00 0.00 93 1016.2
20260505074505 53 199 0.0 0.0 0.00 0.00 0.00 93 1016.2
20260505074402 53 199 0.0 0.0 0.00 0.00 0.00 93 1016.2
20260505074301 54 199 0.0 0.0 0.00 0.00 0.00 93 1016.2
20260505074202 53 199 0.0 0.0 0.00 0.00 0.00 93 1016.3
20260505074102 53 199 0.0 0.0 0.00 0.00 0.00 93 1016.2
20260505074006 54 199 0.0 0.0 0.00 0.00 0.00 93 1016.3
20260505073901 54 199 0.0 0.0 0.00 0.00 0.00 93 1016.2
20260505073802 54 199 0.0 0.0 0.00 0.00 0.00 93 1016.2
20260505073701 54 199 0.0 0.0 0.00 0.00 0.00 93 1016.3
20260505073602 54 199 0.0 0.0 0.00 0.00 0.00 93 1016.3
20260505073505 54 199 0.0 0.0 0.00 0.00 0.00 93 1016.3
20260505073402 54 199 0.0 0.0 0.00 0.00 0.00 93 1016.3
20260505073302 54 199 0.0 0.0 0.00 0.00 0.00 93 1016.3
20260505073201 54 199 0.0 0.0 0.00 0.00 0.00 93 1016.3
20260505072602 54 199 0.0 0.0 0.00 0.00 0.00 93 1016.3
20260505072506 54 199 0.0 0.0 0.00 0.00 0.00 93 1016.3
20260505072402 54 199 0.0 0.0 0.00 0.00 0.00 93 1016.3
20260505072301 54 199 0.0 0.0 0.00 0.00 0.00 93 1016.4
20260505072202 54 199 0.0 0.0 0.00 0.00 0.00 93 1016.3
20260505072101 54 199 0.0 0.0 0.00 0.00 0.00 93 1016.4
20260505072005 54 199 0.0 0.0 0.00 0.00 0.00 93 1016.3
20260505071801 54 199 0.0 0.0 0.00 0.00 0.00 93 1016.3
20260505071701 54 199 0.0 0.0 0.00 0.00 0.00 93 1016.3
20260505071602 54 199 0.0 0.0 0.00 0.00 0.00 93 1016.2
20260505071505 54 199 0.0 0.0 0.00 0.00 0.00 93 1016.3
20260505071401 54 199 0.0 0.0 0.00 0.00 0.00 93 1016.3
20260505071202 54 199 0.0 0.0 0.00 0.00 0.00 93 1016.1
20260505071101 54 199 0.0 0.0 0.00 0.00 0.00 93 1016.2
20260505071005 54 199 0.0 0.0 0.00 0.00 0.00 93 1016.2
20260505070901 54 199 0.0 0.0 0.00 0.00 0.00 93 1016.2
20260505070802 54 199 0.0 0.0 0.00 0.00 0.00 93 1016.2
20260505070702 54 199 0.0 0.0 0.00 0.00 0.00 93 1016.2
20260505070602 54 199 0.0 0.0 0.00 0.00 0.00 93 1016.2
20260505070505 54 199 0.0 0.0 0.00 0.00 0.00 92 1016.3
20260505070402 54 199 0.0 0.0 0.00 0.00 0.00 92 1016.2
20260505070303 54 199 0.0 0.0 0.00 0.00 0.00 93 1016.2
20260505070201 54 199 0.0 0.0 0.00 0.00 0.00 92 1016.2
20260505070005 54 199 0.0 0.0 0.00 0.00 0.00 92 1016.2
20260505065902 54 199 0.0 0.0 0.00 0.00 0.00 92 1016.2
20260505065803 54 199 0.0 0.0 0.00 0.00 0.00 92 1016.2
20260505065602 54 199 0.0 0.0 0.00 0.00 0.00 92 1016.3
20260505065505 54 199 0.0 0.0 0.00 0.00 0.00 92 1016.2
20260505065403 54 199 0.0 0.0 0.00 0.00 0.00 92 1016.2
20260505065202 54 199 0.0 0.0 0.00 0.00 0.00 92 1016.2
20260505065101 54 199 0.0 0.0 0.00 0.00 0.00 92 1016.3
20260505065005 54 199 0.0 0.0 0.00 0.00 0.00 92 1016.3
20260505064901 54 199 0.0 0.0 0.00 0.00 0.00 92 1016.2
20260505064801 54 199 0.0 0.0 0.00 0.00 0.00 92 1016.3
20260505064702 54 199 0.0 0.0 0.00 0.00 0.00 92 1016.3
20260505064603 54 199 0.0 0.0 0.00 0.00 0.00 92 1016.3
20260505064506 54 199 0.0 0.0 0.00 0.00 0.00 92 1016.3
20260505064402 54 199 0.0 0.0 0.00 0.00 0.00 92 1016.3
20260505064303 54 199 0.0 0.0 0.00 0.00 0.00 92 1016.3
20260505064203 54 199 0.0 0.0 0.00 0.00 0.00 92 1016.3
20260505064102 54 199 0.0 0.0 0.00 0.00 0.00 92 1016.3
20260505064005 54 199 0.0 0.0 0.00 0.00 0.00 92 1016.3
20260505063902 54 199 0.0 0.0 0.00 0.00 0.00 92 1016.5
20260505063603 54 199 0.0 0.0 0.00 0.00 0.00 91 1016.3
20260505063505 54 199 0.0 0.0 0.00 0.00 0.00 91 1016.4
20260505063403 54 199 0.0 0.0 0.00 0.00 0.00 91 1016.4
20260505063302 54 199 0.0 0.0 0.00 0.00 0.00 92 1016.4
20260505063203 54 199 0.0 0.0 0.00 0.00 0.00 91 1016.4
20260505062803 54 199 0.0 0.0 0.00 0.00 0.00 91 1016.5
20260505062702 54 199 0.0 0.0 0.00 0.00 0.00 91 1016.5
20260505062602 54 199 0.0 0.0 0.00 0.00 0.00 91 1016.6
20260505062506 54 199 0.0 0.0 0.00 0.00 0.00 91 1016.7
20260505062401 54 199 0.0 0.0 0.00 0.00 0.00 91 1016.6
20260505062304 54 199 0.0 0.0 0.00 0.00 0.00 91 1016.7
20260505062202 54 199 0.0 0.0 0.00 0.00 0.00 91 1016.7
20260505062101 54 199 0.0 0.0 0.00 0.00 0.00 91 1016.7
20260505062006 54 199 0.0 0.0 0.00 0.00 0.00 91 1016.7
20260505061902 54 199 0.0 0.0 0.00 0.00 0.00 91 1016.8
20260505061802 54 199 0.0 0.0 0.00 0.00 0.00 91 1016.8
20260505061702 54 199 0.0 0.0 0.00 0.00 0.00 91 1016.7
20260505061601 54 199 0.0 0.0 0.00 0.00 0.00 91 1016.7
20260505061505 54 199 0.0 0.0 0.00 0.00 0.00 90 1016.7
20260505061401 54 199 0.0 0.0 0.00 0.00 0.00 90 1016.7
20260505061303 54 199 0.0 0.0 0.00 0.00 0.00 90 1016.7
20260505061202 54 199 0.0 0.0 0.00 0.00 0.00 90 1016.8
20260505061102 54 199 0.0 0.0 0.00 0.00 0.00 90 1016.8
20260505061005 54 199 0.0 0.0 0.00 0.00 0.00 90 1016.8
20260505060902 54 199 0.0 0.0 0.00 0.00 0.00 90 1016.8
20260505060802 54 199 0.0 0.0 0.00 0.00 0.00 90 1016.8
20260505060702 54 199 0.0 0.0 0.00 0.00 0.00 90 1016.8
20260505060603 54 199 0.0 0.0 0.00 0.00 0.00 90 1016.8
20260505060505 54 199 0.0 0.0 0.00 0.00 0.00 90 1016.9
20260505060402 54 199 0.0 0.0 0.00 0.00 0.00 90 1016.9
20260505060302 54 199 0.0 0.0 0.00 0.00 0.00 89 1016.9
20260505060202 54 199 0.0 0.0 0.00 0.00 0.00 90 1016.9
20260505060103 54 199 0.0 0.0 0.00 0.00 0.00 90 1016.8
20260505060007 54 199 0.0 0.0 0.00 0.00 0.00 90 1016.8
20260505055902 54 199 0.0 0.0 0.00 0.00 0.00 90 1016.8
20260505055801 54 199 0.0 0.0 0.00 0.00 0.00 90 1016.9
20260505055701 54 199 0.0 0.0 0.00 0.00 0.00 90 1016.9
20260505055602 55 199 0.0 0.0 0.00 0.00 0.00 90 1016.8
20260505055506 54 199 0.0 0.0 0.00 0.00 0.00 90 1016.9
20260505055402 55 199 0.0 0.0 0.00 0.00 0.00 89 1016.9
20260505055303 55 199 0.0 0.0 0.00 0.00 0.00 89 1017.0
20260505055102 55 199 0.0 0.0 0.00 0.00 0.00 89 1016.9
20260505055005 55 199 0.0 0.0 0.00 0.00 0.00 89 1017.0
20260505054602 55 199 0.0 0.0 0.00 0.00 0.00 88 1017.1
20260505054505 55 199 0.0 0.0 0.00 0.00 0.00 88 1017.0
20260505054402 55 199 0.0 0.0 0.00 0.00 0.00 88 1017.0
20260505054303 55 199 0.0 0.0 0.00 0.00 0.00 88 1017.1
20260505054203 55 199 0.0 0.0 0.00 0.00 0.00 89 1017.1
20260505054102 55 199 0.0 0.0 0.00 0.00 0.00 89 1017.1
20260505054005 55 199 0.0 0.0 0.00 0.00 0.00 88 1017.1
20260505053901 55 199 0.0 0.0 0.00 0.00 0.00 88 1017.1
20260505053803 55 199 0.0 0.0 0.00 0.00 0.00 88 1017.0
20260505053702 55 199 0.0 0.0 0.00 0.00 0.00 88 1017.2
20260505053602 55 199 0.0 0.0 0.00 0.00 0.00 88 1017.0
20260505053505 55 199 0.0 0.0 0.00 0.00 0.00 88 1017.2
20260505053401 55 199 0.0 0.0 0.00 0.00 0.00 88 1017.1
20260505053302 55 199 0.0 0.0 0.00 0.00 0.00 88 1017.1
20260505053102 55 199 0.0 0.0 0.00 0.00 0.00 88 1017.1
20260505053006 55 199 0.0 0.0 0.00 0.00 0.00 88 1017.2
20260505052904 55 199 0.0 0.0 0.00 0.00 0.00 87 1017.2
20260505052702 55 199 0.0 0.0 0.00 0.00 0.00 88 1017.2
20260505052605 55 199 0.0 0.0 0.00 0.00 0.00 87 1017.2
20260505052505 55 199 0.0 0.0 0.00 0.00 0.00 87 1017.3
20260505052403 55 199 0.0 0.0 0.00 0.00 0.00 87 1017.3
20260505052304 55 199 0.0 0.0 0.00 0.00 0.00 87 1017.3
20260505052102 55 199 0.0 0.0 0.00 0.00 0.00 87 1017.3
20260505052005 56 199 0.0 0.0 0.00 0.00 0.00 87 1017.3
20260505051902 56 199 0.0 0.0 0.00 0.00 0.00 87 1017.3
20260505051803 55 199 0.0 0.0 0.00 0.00 0.00 87 1017.4
20260505051702 56 199 0.0 0.0 0.00 0.00 0.00 87 1017.4
20260505051601 56 199 0.0 0.0 0.00 0.00 0.00 86 1017.4
20260505051506 56 199 0.0 0.0 0.00 0.00 0.00 87 1017.3
20260505051302 56 199 0.0 0.0 0.00 0.00 0.00 86 1017.4
20260505051202 56 199 0.0 0.0 0.00 0.00 0.00 86 1017.3
20260505051103 56 199 0.0 0.0 0.00 0.00 0.00 86 1017.5
20260505051006 56 199 0.0 0.0 0.00 0.00 0.00 86 1017.4
20260505050902 56 199 0.0 0.0 0.00 0.00 0.00 86 1017.4
20260505050802 56 199 0.0 0.0 0.00 0.00 0.00 86 1017.4
20260505050701 56 199 0.0 0.0 0.00 0.00 0.00 86 1017.4
20260505050601 56 199 0.0 0.0 0.00 0.00 0.00 86 1017.4
20260505050505 56 199 0.0 0.0 0.00 0.00 0.00 86 1017.4
20260505050402 56 199 0.0 0.0 0.00 0.00 0.00 86 1017.5
20260505050301 56 199 0.0 0.0 0.00 0.00 0.00 86 1017.4
20260505050201 56 199 0.0 0.0 0.00 0.00 0.00 86 1017.4
20260505041304 57 199 0.0 3.0 0.00 0.00 0.00 83 1017.4
20260505041204 57 199 0.0 3.0 0.00 0.00 0.00 83 1017.4
20260505040904 57 199 1.0 3.0 0.00 0.00 0.00 83 1017.4
20260505040803 57 199 1.0 3.0 0.00 0.00 0.00 83 1017.5
20260505040705 57 199 1.0 3.0 0.00 0.00 0.00 83 1017.5
20260505040604 57 199 1.0 3.0 0.00 0.00 0.00 83 1017.5
20260505040506 57 199 1.0 3.0 0.00 0.00 0.00 83 1017.5
20260505040304 57 202 1.0 2.0 0.00 0.00 0.00 82 1017.5
20260505040207 57 202 1.0 2.0 0.00 0.00 0.00 82 1017.5
20260505040104 57 200 0.0 2.0 0.00 0.00 0.00 82 1017.5
20260505040011 57 200 1.0 2.0 0.00 0.00 0.00 82 1017.5
20260505035906 57 200 0.0 2.0 0.00 0.00 0.00 82 1017.5
20260505035805 57 194 1.0 2.0 0.00 0.00 0.00 82 1017.5
20260505035705 57 194 1.0 2.0 0.00 0.00 0.00 82 1017.5
20260505035605 57 201 0.0 2.0 0.00 0.00 0.00 82 1017.4
20260505035506 58 201 0.0 2.0 0.00 0.00 0.00 82 1017.5
20260505035404 57 201 0.0 2.0 0.00 0.00 0.00 82 1017.5
20260505035305 58 201 0.0 2.0 0.00 0.00 0.00 82 1017.6
20260505035205 58 201 1.0 2.0 0.00 0.00 0.00 82 1017.5
20260505035106 58 201 1.0 2.0 0.00 0.00 0.00 82 1017.6
20260505035006 58 201 1.0 2.0 0.00 0.00 0.00 82 1017.5
20260505034805 58 206 1.0 2.0 0.00 0.00 0.00 82 1017.5
20260505034705 58 198 0.0 2.0 0.00 0.00 0.00 82 1017.5
20260505034405 58 198 0.0 2.0 0.00 0.00 0.00 81 1017.4
20260505034304 58 198 1.0 2.0 0.00 0.00 0.00 81 1017.5
20260505034206 58 198 1.0 2.0 0.00 0.00 0.00 81 1017.5
20260505034106 58 198 0.0 2.0 0.00 0.00 0.00 81 1017.5
20260505034006 58 198 0.0 2.0 0.00 0.00 0.00 81 1017.4
20260505033905 58 205 0.0 1.0 0.00 0.00 0.00 81 1017.4
20260505033805 58 205 0.0 1.0 0.00 0.00 0.00 81 1017.5
20260505033705 58 205 0.0 1.0 0.00 0.00 0.00 81 1017.4
20260505033404 58 205 0.0 1.0 0.00 0.00 0.00 80 1017.5
20260505033305 58 205 0.0 1.0 0.00 0.00 0.00 80 1017.5
20260505033205 58 205 0.0 1.0 0.00 0.00 0.00 80 1017.5
20260505033106 58 205 0.0 0.0 0.00 0.00 0.00 80 1017.5
20260505033007 58 205 0.0 0.0 0.00 0.00 0.00 80 1017.4
20260505032905 58 205 0.0 0.0 0.00 0.00 0.00 80 1017.5
20260505032805 58 205 0.0 0.0 0.00 0.00 0.00 80 1017.4
20260505032706 58 205 0.0 0.0 0.00 0.00 0.00 80 1017.4
20260505032604 58 205 0.0 0.0 0.00 0.00 0.00 80 1017.5
20260505032305 58 205 0.0 0.0 0.00 0.00 0.00 79 1017.4
20260505032205 59 205 0.0 0.0 0.00 0.00 0.00 79 1017.5
20260505031906 59 205 0.0 0.0 0.00 0.00 0.00 79 1017.4
20260505031808 59 205 0.0 0.0 0.00 0.00 0.00 78 1017.5
20260505031706 59 205 0.0 0.0 0.00 0.00 0.00 78 1017.5
20260505031404 59 205 0.0 0.0 0.00 0.00 0.00 78 1017.5
20260505031305 59 205 0.0 0.0 0.00 0.00 0.00 77 1017.5
20260505031205 59 205 0.0 0.0 0.00 0.00 0.00 77 1017.4
20260505031104 59 205 0.0 0.0 0.00 0.00 0.00 77 1017.5
20260505031006 59 205 0.0 0.0 0.00 0.00 0.00 77 1017.4
20260505030905 59 205 0.0 0.0 0.00 0.00 0.00 77 1017.5
20260505030808 59 205 0.0 0.0 0.00 0.00 0.00 77 1017.4
20260505030706 59 205 0.0 0.0 0.00 0.00 0.00 77 1017.4
20260505030605 59 205 0.0 0.0 0.00 0.00 0.00 76 1017.4
20260505030507 59 205 0.0 0.0 0.00 0.00 0.00 76 1017.4
20260505030405 59 205 0.0 0.0 0.00 0.00 0.00 76 1017.4
20260505030305 59 205 0.0 0.0 0.00 0.00 0.00 76 1017.4
20260505030206 59 205 0.0 0.0 0.00 0.00 0.00 76 1017.5
20260505025904 60 205 0.0 0.0 0.00 0.00 0.00 75 1017.4
20260505025804 60 205 0.0 0.0 0.00 0.00 0.00 75 1017.5
20260505025704 60 205 0.0 0.0 0.00 0.00 0.00 75 1017.4
20260505025604 60 205 0.0 0.0 0.00 0.00 0.00 75 1017.4
20260505025506 60 205 0.0 0.0 0.00 0.00 0.00 74 1017.5
20260505025403 60 205 0.0 0.0 0.00 0.00 0.00 74 1017.5
20260505025305 60 205 0.0 0.0 0.00 0.00 0.00 74 1017.5
20260505025205 60 205 0.0 0.0 0.00 0.00 0.00 74 1017.5
20260505025104 60 205 0.0 0.0 0.00 0.00 0.00 74 1017.5
20260505025006 60 205 0.0 0.0 0.00 0.00 0.00 74 1017.5
20260505024904 60 205 0.0 0.0 0.00 0.00 0.00 74 1017.5
20260505024803 60 205 0.0 0.0 0.00 0.00 0.00 73 1017.5
20260505024704 60 205 0.0 0.0 0.00 0.00 0.00 73 1017.5
20260505024604 60 205 0.0 0.0 0.00 0.00 0.00 73 1017.5
20260505024506 60 205 0.0 0.0 0.00 0.00 0.00 73 1017.4
20260505024404 61 205 0.0 0.0 0.00 0.00 0.00 74 1017.5
20260505024304 61 205 0.0 1.0 0.00 0.00 0.00 74 1017.4
20260505024205 61 205 0.0 1.0 0.00 0.00 0.00 73 1017.4
20260505024104 61 205 0.0 1.0 0.00 0.00 0.00 73 1017.4
20260505024006 61 205 0.0 1.0 0.00 0.00 0.00 72 1017.4
20260505023904 61 205 0.0 1.0 0.00 0.00 0.00 72 1017.4
20260505023805 61 205 0.0 1.0 0.00 0.00 0.00 72 1017.3
20260505023404 61 205 0.0 1.0 0.00 0.00 0.00 72 1017.3
20260505023204 61 205 0.0 1.0 0.00 0.00 0.00 72 1017.3
20260505023104 61 205 0.0 1.0 0.00 0.00 0.00 72 1017.3
20260505023006 61 205 0.0 1.0 0.00 0.00 0.00 72 1017.3
20260505022904 61 205 0.0 1.0 0.00 0.00 0.00 71 1017.2
20260505022805 61 205 0.0 1.0 0.00 0.00 0.00 71 1017.3
20260505022704 61 205 0.0 1.0 0.00 0.00 0.00 70 1017.3
20260505022604 61 205 0.0 1.0 0.00 0.00 0.00 70 1017.2
20260505022506 61 205 0.0 1.0 0.00 0.00 0.00 70 1017.3
20260505022205 62 205 0.0 1.0 0.00 0.00 0.00 70 1017.3
20260505022103 62 205 0.0 1.0 0.00 0.00 0.00 69 1017.3
20260505022008 62 205 0.0 1.0 0.00 0.00 0.00 70 1017.3
20260505021904 62 205 0.0 2.0 0.00 0.00 0.00 69 1017.4
20260505021803 62 205 0.0 2.0 0.00 0.00 0.00 69 1017.3
20260505021704 62 205 0.0 2.0 0.00 0.00 0.00 69 1017.4
20260505021604 62 205 0.0 2.0 0.00 0.00 0.00 69 1017.3
20260505021505 62 205 0.0 2.0 0.00 0.00 0.00 69 1017.3
20260505021404 62 205 0.0 2.0 0.00 0.00 0.00 68 1017.3
20260505021304 62 205 0.0 2.0 0.00 0.00 0.00 68 1017.3
20260505021205 62 205 0.0 2.0 0.00 0.00 0.00 68 1017.3
20260505021104 62 205 1.0 2.0 0.00 0.00 0.00 68 1017.2
20260505021005 62 205 1.0 2.0 0.00 0.00 0.00 68 1017.2
20260505020904 62 205 1.0 2.0 0.00 0.00 0.00 68 1017.2
20260505020805 62 205 1.0 2.0 0.00 0.00 0.00 68 1017.2
20260505020704 62 205 1.0 1.0 0.00 0.00 0.00 67 1017.1
20260505020604 62 205 0.0 1.0 0.00 0.00 0.00 67 1017.2
20260505020507 62 205 0.0 1.0 0.00 0.00 0.00 67 1017.3
20260505020404 62 205 0.0 1.0 0.00 0.00 0.00 67 1017.2
20260505020204 62 205 0.0 1.0 0.00 0.00 0.00 67 1017.3
20260505020104 62 205 0.0 1.0 0.00 0.00 0.00 67 1017.3
20260505020006 62 205 0.0 1.0 0.00 0.00 0.00 66 1017.3
20260505015704 63 205 0.0 2.0 0.00 0.00 0.00 66 1017.2
20260505015604 63 205 0.0 2.0 0.00 0.00 0.00 66 1017.3
20260505015506 63 205 0.0 2.0 0.00 0.00 0.00 66 1017.2
20260505015404 63 205 0.0 2.0 0.00 0.00 0.00 66 1017.3
20260505015304 63 205 0.0 2.0 0.00 0.00 0.00 65 1017.3
20260505015204 63 205 0.0 2.0 0.00 0.00 0.00 65 1017.3
20260505014904 63 205 1.0 2.0 0.00 0.00 0.00 65 1017.2
20260505014804 63 206 1.0 2.0 0.00 0.00 0.00 64 1017.3
20260505014704 63 206 1.0 2.0 0.00 0.00 0.00 64 1017.2
20260505014604 63 207 1.0 2.0 0.00 0.00 0.00 64 1017.3
20260505014506 63 207 1.0 2.0 0.00 0.00 0.00 64 1017.2
20260505014404 63 202 1.0 2.0 0.00 0.00 0.00 64 1017.3
20260505014303 63 210 1.0 2.0 0.00 0.00 0.00 64 1017.3
20260505014204 63 210 1.0 2.0 0.00 0.00 0.00 64 1017.3
20260505014104 63 200 1.0 3.0 0.00 0.00 0.00 64 1017.3
20260505014006 63 205 1.0 3.0 0.00 0.00 0.00 64 1017.2
20260505013904 63 205 1.0 3.0 0.00 0.00 0.00 63 1017.2
20260505013803 63 205 1.0 3.0 0.00 0.00 0.00 63 1017.2
20260505013704 64 188 1.0 4.0 0.00 0.00 0.00 63 1017.2
20260505013604 64 186 1.0 4.0 0.00 0.00 0.00 63 1017.1
20260505013505 64 186 1.0 4.0 0.00 0.00 0.00 63 1017.1
20260505013304 64 208 1.0 4.0 0.00 0.00 0.00 62 1017.2
20260505013204 64 188 1.0 4.0 0.00 0.00 0.00 63 1017.0
20260505013104 64 205 1.0 4.0 0.00 0.00 0.00 62 1017.1
20260505013006 64 182 2.0 4.0 0.00 0.00 0.00 62 1017.1
20260505012904 64 200 2.0 4.0 0.00 0.00 0.00 62 1017.1
20260505012704 64 174 2.0 4.0 0.00 0.00 0.00 62 1017.1
20260505012404 64 192 2.0 4.0 0.00 0.00 0.00 62 1017.1
20260505012304 64 201 2.0 4.0 0.00 0.00 0.00 61 1017.0
20260505012204 64 198 2.0 3.0 0.00 0.00 0.00 61 1017.0
20260505012104 64 209 2.0 3.0 0.00 0.00 0.00 61 1017.0
20260505012006 64 194 1.0 3.0 0.00 0.00 0.00 61 1017.0
20260505011903 64 196 1.0 3.0 0.00 0.00 0.00 60 1017.0
20260505011804 65 184 1.0 3.0 0.00 0.00 0.00 60 1017.0
20260505011704 65 173 2.0 3.0 0.00 0.00 0.00 60 1017.0
20260505011604 65 188 2.0 4.0 0.00 0.00 0.00 60 1017.0
20260505011505 65 189 1.0 4.0 0.00 0.00 0.00 60 1016.9
20260505011404 65 208 1.0 4.0 0.00 0.00 0.00 60 1016.9
20260505011103 65 174 1.0 4.0 0.00 0.00 0.00 60 1016.9
20260505011006 65 188 1.0 4.0 0.00 0.00 0.00 59 1016.9
20260505010904 65 196 2.0 4.0 0.00 0.00 0.00 60 1016.8
20260505010804 65 213 2.0 4.0 0.00 0.00 0.00 59 1016.8
20260505010704 65 203 2.0 4.0 0.00 0.00 0.00 59 1016.9
20260505010604 65 187 2.0 4.0 0.00 0.00 0.00 59 1016.9
20260505010506 65 211 2.0 4.0 0.00 0.00 0.00 59 1016.9
20260505010404 65 173 2.0 4.0 0.00 0.00 0.00 59 1016.9
20260505010204 65 186 2.0 5.0 0.00 0.00 0.00 59 1016.9
20260505010104 65 207 3.0 5.0 0.00 0.00 0.00 58 1016.9
20260505010009 65 195 3.0 5.0 0.00 0.00 0.00 58 1016.9
20260505005904 65 178 2.0 5.0 0.00 0.00 0.00 59 1016.8
20260505005805 65 202 2.0 5.0 0.00 0.00 0.00 58 1016.8
20260505005704 65 157 3.0 5.0 0.00 0.00 0.00 58 1016.9
20260505005603 65 206 3.0 5.0 0.00 0.00 0.00 58 1016.9
20260505005506 66 199 3.0 5.0 0.00 0.00 0.00 58 1016.9
20260505005304 66 159 3.0 6.0 0.00 0.00 0.00 58 1016.9
20260505005203 66 165 2.0 5.0 0.00 0.00 0.00 58 1016.8
20260505004904 66 222 2.0 5.0 0.00 0.00 0.00 58 1016.8
20260505004603 66 173 3.0 6.0 0.00 0.00 0.00 57 1016.7
20260505004505 66 196 2.0 7.0 0.00 0.00 0.00 57 1016.7
20260505004404 66 157 2.0 7.0 0.00 0.00 0.00 57 1016.7
20260505004304 66 205 1.0 8.0 0.00 0.00 0.00 57 1016.7
20260505004204 66 175 2.0 8.0 0.00 0.00 0.00 57 1016.8
20260505004103 66 203 2.0 8.0 0.00 0.00 0.00 57 1016.7
20260505004006 66 196 2.0 8.0 0.00 0.00 0.00 57 1016.7
20260505003905 66 219 3.0 8.0 0.00 0.00 0.00 57 1016.7
20260505003804 66 192 4.0 8.0 0.00 0.00 0.00 57 1016.8
20260505003605 66 174 4.0 8.0 0.00 0.00 0.00 57 1016.6
20260505003506 66 178 4.0 8.0 0.00 0.00 0.00 57 1016.7
20260505003403 66 183 4.0 6.0 0.00 0.00 0.00 57 1016.6
20260505003303 66 190 4.0 6.0 0.00 0.00 0.00 57 1016.6
20260505003204 66 173 3.0 6.0 0.00 0.00 0.00 57 1016.5
20260505003103 66 185 2.0 6.0 0.00 0.00 0.00 57 1016.6
20260505003006 67 188 2.0 6.0 0.00 0.00 0.00 57 1016.6
20260505002704 67 171 3.0 6.0 0.00 0.00 0.00 58 1016.5
20260505002605 67 178 2.0 6.0 0.00 0.00 0.00 58 1016.5
20260505002506 67 194 2.0 6.0 0.00 0.00 0.00 57 1016.5
20260505002304 67 159 3.0 6.0 0.00 0.00 0.00 57 1016.5
20260505002204 67 206 2.0 6.0 0.00 0.00 0.00 57 1016.5
20260505002103 67 179 2.0 6.0 0.00 0.00 0.00 57 1016.6
20260505002006 67 213 3.0 6.0 0.00 0.00 0.00 57 1016.5
20260505001903 67 192 3.0 6.0 0.00 0.00 0.00 57 1016.6
20260505001804 67 209 4.0 6.0 0.00 0.00 0.00 57 1016.6
20260505001603 67 185 3.0 5.0 0.00 0.00 0.00 57 1016.5
20260505001505 67 181 3.0 5.0 0.00 0.00 0.00 57 1016.5
20260505001404 67 192 3.0 5.0 0.00 0.00 0.00 57 1016.5
20260505001304 67 206 3.0 6.0 0.00 0.00 0.00 56 1016.5
20260505001203 67 171 3.0 6.0 0.00 0.00 0.00 57 1016.6
20260505001104 68 178 3.0 6.0 0.00 0.00 0.00 56 1016.4
20260505001007 68 217 3.0 6.0 0.00 0.00 0.00 57 1016.6
20260505000904 68 185 3.0 6.0 0.00 0.00 0.00 56 1016.5
20260505000804 68 182 4.0 6.0 0.00 0.00 0.00 56 1016.5
20260505000704 68 245 4.0 6.0 0.00 0.00 0.00 56 1016.5
20260505000603 68 190 4.0 8.0 0.00 0.00 0.00 56 1016.5
20260505000505 68 198 3.0 8.0 0.00 0.00 0.00 56 1016.5
20260505000405 68 182 2.0 8.0 0.00 0.00 0.00 56 1016.5
20260505000304 68 190 2.0 8.0 0.00 0.00 0.00 56 1016.5
20260505000204 68 215 2.0 8.0 0.00 0.00 0.00 56 1016.5
20260505000103 68 195 2.0 8.0 0.00 0.00 0.00 56 1016.5
20260505000008 68 202 3.0 8.0 0.00 0.00 0.00 56 1016.5
20260504235904 68 177 4.0 8.0 0.00 0.00 0.00 55 1016.5
20260504235804 68 182 4.0 8.0 0.00 0.00 0.00 55 1016.5
20260504235704 68 193 3.0 7.0 0.00 0.00 0.00 55 1016.4
20260504235603 68 194 4.0 7.0 0.00 0.00 0.00 55 1016.5
20260504235506 68 163 4.0 7.0 0.00 0.00 0.00 55 1016.4
20260504235404 68 166 5.0 7.0 0.00 0.00 0.00 55 1016.4
20260504235305 68 178 4.0 7.0 0.00 0.00 0.00 55 1016.5
20260504235204 69 152 3.0 7.0 0.00 0.00 0.00 55 1016.5
20260504235103 69 186 3.0 7.0 0.00 0.00 0.00 55 1016.4
20260504235005 69 202 3.0 7.0 0.00 0.00 0.00 55 1016.4
20260504234905 69 140 3.0 7.0 0.00 0.00 0.00 55 1016.5
20260504234805 69 173 3.0 7.0 0.00 0.00 0.00 54 1016.3
20260504234703 69 175 3.0 7.0 0.00 0.00 0.00 54 1016.4
20260504234604 69 191 4.0 7.0 0.00 0.00 0.00 54 1016.3
20260504234506 69 165 4.0 11.0 0.00 0.00 0.00 54 1016.4
20260504234204 69 202 3.0 11.0 0.00 0.00 0.00 54 1016.4
20260504234103 69 190 3.0 11.0 0.00 0.00 0.00 54 1016.4
20260504234005 69 169 3.0 11.0 0.00 0.00 0.00 54 1016.4
20260504233904 69 157 4.0 11.0 0.00 0.00 0.00 54 1016.4
20260504233804 69 155 5.0 11.0 0.00 0.00 0.00 54 1016.4
20260504233704 69 198 5.0 11.0 0.00 0.00 0.00 54 1016.4
20260504233604 69 184 4.0 9.0 0.00 0.00 0.00 54 1016.4
20260504233505 69 198 4.0 9.0 0.00 0.00 0.00 54 1016.4
20260504233405 69 217 3.0 9.0 0.00 0.00 0.00 54 1016.4
20260504233303 69 175 5.0 9.0 0.00 0.00 0.00 54 1016.3
20260504233204 69 153 4.0 9.0 0.00 0.00 0.00 54 1016.3
20260504232904 70 171 3.0 10.0 0.00 0.00 0.00 54 1016.3
20260504232804 70 186 3.0 10.0 0.00 0.00 0.00 54 1016.4
20260504232704 70 195 2.0 11.0 0.00 0.00 0.00 54 1016.4
20260504232604 70 234 2.0 11.0 0.00 0.00 0.00 54 1016.4
20260504232506 70 153 5.0 11.0 0.00 0.00 0.00 53 1016.4
20260504232404 70 137 5.0 11.0 0.00 0.00 0.00 53 1016.4
20260504232305 70 236 5.0 11.0 0.00 0.00 0.00 53 1016.3
20260504232203 70 121 6.0 11.0 0.00 0.00 0.00 54 1016.4
20260504231906 70 128 4.0 11.0 0.00 0.00 0.00 55 1016.4
20260504231804 70 180 3.0 10.0 0.00 0.00 0.00 55 1016.5
20260504231604 70 175 5.0 11.0 0.00 0.00 0.00 54 1016.4
20260504231505 70 182 3.0 11.0 0.00 0.00 0.00 55 1016.3
20260504231403 70 178 3.0 10.0 0.00 0.00 0.00 55 1016.4
20260504231204 70 157 6.0 10.0 0.00 0.00 0.00 55 1016.4
20260504231104 70 188 5.0 9.0 0.00 0.00 0.00 55 1016.4
20260504231006 70 199 5.0 15.0 0.00 0.00 0.00 55 1016.4
20260504230903 70 153 4.0 15.0 0.00 0.00 0.00 55 1016.3
20260504230803 70 144 4.0 15.0 0.00 0.00 0.00 55 1016.4
20260504230704 70 173 4.0 15.0 0.00 0.00 0.00 55 1016.4
20260504230604 70 191 4.0 15.0 0.00 0.00 0.00 55 1016.4
20260504230505 70 224 4.0 15.0 0.00 0.00 0.00 55 1016.4
20260504230403 70 140 6.0 15.0 0.00 0.00 0.00 55 1016.4
20260504230303 70 188 6.0 15.0 0.00 0.00 0.00 55 1016.4
20260504230203 70 188 4.0 15.0 0.00 0.00 0.00 55 1016.4
20260504230104 70 196 4.0 12.0 0.00 0.00 0.00 55 1016.4
20260504230011 70 173 5.0 12.0 0.00 0.00 0.00 55 1016.4
20260504225904 70 171 5.0 13.0 0.00 0.00 0.00 55 1016.4
20260504225804 71 173 3.0 11.0 0.00 0.00 0.00 55 1016.4
20260504225704 71 84 4.0 11.0 0.00 0.00 0.00 55 1016.3
20260504225604 71 175 5.0 11.0 0.00 0.00 0.00 55 1016.3
20260504225506 71 177 4.0 11.0 0.00 0.00 0.00 55 1016.4
20260504225404 71 198 3.0 11.0 0.00 0.00 0.00 55 1016.4
20260504225304 71 69 5.0 11.0 0.00 0.00 0.00 55 1016.3
20260504225204 71 128 5.0 11.0 0.00 0.00 0.00 55 1016.4
20260504225103 71 86 6.0 11.0 0.00 0.00 0.00 55 1016.4
20260504225008 71 107 6.0 11.0 0.00 0.00 0.00 55 1016.3
20260504224903 71 170 4.0 11.0 0.00 0.00 0.00 56 1016.3
20260504224804 71 163 3.0 11.0 0.00 0.00 0.00 56 1016.3
20260504224604 71 197 3.0 8.0 0.00 0.00 0.00 55 1016.3
20260504224507 71 93 3.0 8.0 0.00 0.00 0.00 55 1016.4
20260504224204 71 162 1.0 13.0 0.00 0.00 0.00 56 1016.3
20260504224103 71 116 2.0 13.0 0.00 0.00 0.00 56 1016.4
20260504224006 71 143 3.0 13.0 0.00 0.00 0.00 55 1016.5
20260504223904 71 130 3.0 13.0 0.00 0.00 0.00 55 1016.3
20260504223605 71 66 7.0 13.0 0.00 0.00 0.00 54 1016.4
20260504223506 71 171 5.0 13.0 0.00 0.00 0.00 55 1016.4
20260504223304 71 116 4.0 10.0 0.00 0.00 0.00 55 1016.4
20260504223204 71 211 5.0 16.0 0.00 0.00 0.00 55 1016.4
20260504223103 71 207 6.0 16.0 0.00 0.00 0.00 55 1016.3
20260504223007 71 161 5.0 16.0 0.00 0.00 0.00 55 1016.4
20260504222904 71 159 4.0 16.0 0.00 0.00 0.00 55 1016.3
20260504222803 71 167 4.0 17.0 0.00 0.00 0.00 55 1016.3
20260504222703 71 161 4.0 17.0 0.00 0.00 0.00 54 1016.3
20260504222604 71 92 4.0 17.0 0.00 0.00 0.00 54 1016.3
20260504222506 71 111 6.0 17.0 0.00 0.00 0.00 54 1016.3
20260504222403 71 140 8.0 17.0 0.00 0.00 0.00 54 1016.3
20260504222305 72 82 9.0 17.0 0.00 0.00 0.00 54 1016.3
20260504222205 72 129 6.0 17.0 0.00 0.00 0.00 54 1016.2
20260504222104 72 180 6.0 17.0 0.00 0.00 0.00 54 1016.2
20260504222007 72 140 7.0 17.0 0.00 0.00 0.00 53 1016.2
20260504221905 72 130 8.0 16.0 0.00 0.00 0.00 53 1016.3
20260504221603 72 167 5.0 13.0 0.00 0.00 0.00 53 1016.3
20260504221506 72 92 6.0 13.0 0.00 0.00 0.00 53 1016.3
20260504221403 72 153 6.0 15.0 0.00 0.00 0.00 53 1016.4
20260504221304 72 177 8.0 15.0 0.00 0.00 0.00 53 1016.4
20260504221205 72 94 7.0 15.0 0.00 0.00 0.00 53 1016.3
20260504221103 72 78 4.0 15.0 0.00 0.00 0.00 54 1016.4
20260504221006 72 177 4.0 15.0 0.00 0.00 0.00 53 1016.3
20260504220905 72 157 3.0 15.0 0.00 0.00 0.00 53 1016.3
20260504220804 72 204 5.0 15.0 0.00 0.00 0.00 53 1016.3
20260504220404 72 119 5.0 12.0 0.00 0.00 0.00 53 1016.2
20260504220303 72 242 4.0 12.0 0.00 0.00 0.00 54 1016.3
20260504220204 72 157 4.0 12.0 0.00 0.00 0.00 54 1016.4
20260504220104 72 157 4.0 12.0 0.00 0.00 0.00 53 1016.3
20260504220008 72 177 5.0 12.0 0.00 0.00 0.00 54 1016.3
20260504215904 72 341 4.0 14.0 0.00 0.00 0.00 53 1016.2
20260504215803 72 86 5.0 17.0 0.00 0.00 0.00 53 1016.2
20260504215506 72 188 5.0 17.0 0.00 0.00 0.00 53 1016.2
20260504215404 72 80 5.0 17.0 0.00 0.00 0.00 53 1016.2
20260504215304 72 105 6.0 19.0 0.00 0.00 0.00 53 1016.2
20260504215204 72 148 6.0 19.0 0.00 0.00 0.00 52 1016.2
20260504215104 72 185 6.0 19.0 0.00 0.00 0.00 52 1016.2
20260504215007 72 82 7.0 19.0 0.00 0.00 0.00 52 1016.2
20260504214904 72 157 8.0 19.0 0.00 0.00 0.00 52 1016.2
20260504214804 72 147 7.0 19.0 0.00 0.00 0.00 52 1016.2
20260504214703 73 178 8.0 19.0 0.00 0.00 0.00 52 1016.2
20260504214604 73 148 9.0 19.0 0.00 0.00 0.00 52 1016.2
20260504214505 73 155 7.0 16.0 0.00 0.00 0.00 52 1016.1
20260504214404 73 142 5.0 16.0 0.00 0.00 0.00 52 1016.1
20260504214305 73 191 4.0 16.0 0.00 0.00 0.00 52 1016.2
20260504214203 73 207 5.0 16.0 0.00 0.00 0.00 52 1016.1
20260504214103 73 175 5.0 16.0 0.00 0.00 0.00 52 1016.2
20260504214006 73 102 5.0 16.0 0.00 0.00 0.00 52 1016.2
20260504213903 73 182 6.0 16.0 0.00 0.00 0.00 52 1016.1
20260504213804 73 198 7.0 16.0 0.00 0.00 0.00 52 1016.2
20260504213704 73 145 6.0 16.0 0.00 0.00 0.00 52 1016.2
20260504213604 73 117 4.0 14.0 0.00 0.00 0.00 52 1016.1
20260504213506 73 223 6.0 17.0 0.00 0.00 0.00 52 1016.2
20260504213404 73 200 7.0 17.0 0.00 0.00 0.00 52 1016.2
20260504213305 73 157 6.0 17.0 0.00 0.00 0.00 51 1016.1
20260504213204 73 187 5.0 17.0 0.00 0.00 0.00 51 1016.1
20260504213104 73 130 5.0 17.0 0.00 0.00 0.00 51 1016.1
20260504213007 73 108 4.0 17.0 0.00 0.00 0.00 52 1016.1
20260504212904 73 195 5.0 17.0 0.00 0.00 0.00 52 1016.1
20260504212803 73 142 7.0 17.0 0.00 0.00 0.00 51 1016.1
20260504212704 73 159 9.0 17.0 0.00 0.00 0.00 51 1016.1
20260504212604 73 259 7.0 16.0 0.00 0.00 0.00 50 1016.0
20260504212505 73 101 5.0 16.0 0.00 0.00 0.00 50 1016.0
20260504212403 73 119 5.0 16.0 0.00 0.00 0.00 51 1016.1
20260504212304 73 38 7.0 16.0 0.00 0.00 0.00 50 1016.2
20260504212204 73 116 8.0 18.0 0.00 0.00 0.00 51 1016.1
20260504212104 73 138 7.0 18.0 0.00 0.00 0.00 51 1016.1
20260504212007 73 175 7.0 18.0 0.00 0.00 0.00 50 1016.1
20260504211905 73 140 6.0 18.0 0.00 0.00 0.00 50 1016.1
20260504211804 73 111 5.0 18.0 0.00 0.00 0.00 50 1016.1
20260504211704 73 173 6.0 18.0 0.00 0.00 0.00 50 1016.1
20260504211603 73 151 7.0 18.0 0.00 0.00 0.00 49 1016.1
20260504211506 73 163 9.0 18.0 0.00 0.00 0.00 50 1016.1
20260504211404 73 160 9.0 18.0 0.00 0.00 0.00 50 1016.1
20260504211203 73 248 10.0 17.0 0.00 0.00 0.00 49 1016.2
20260504211104 73 123 7.0 16.0 0.00 0.00 0.00 49 1016.1
20260504211005 73 248 7.0 16.0 0.00 0.00 0.00 50 1016.0
20260504210905 73 94 7.0 16.0 0.00 0.00 0.00 50 1016.1
20260504210803 73 165 7.0 16.0 0.00 0.00 0.00 49 1016.0
20260504210704 73 163 9.0 16.0 0.00 0.00 0.00 49 1016.0
20260504210603 73 144 8.0 16.0 0.00 0.00 0.00 49 1016.0
20260504210506 74 168 8.0 16.0 0.00 0.00 0.00 49 1016.0
20260504210403 74 211 8.0 18.0 0.00 0.00 0.00 49 1015.9
20260504210204 74 176 7.0 18.0 0.00 0.00 0.00 49 1016.0
20260504210104 74 155 6.0 17.0 0.00 0.00 0.00 50 1016.0
20260504210011 74 174 6.0 17.0 0.00 0.00 0.00 50 1016.0
20260504205905 74 131 6.0 17.0 0.00 0.00 0.00 49 1016.0
20260504205805 74 193 6.0 17.0 0.00 0.00 0.00 49 1016.0
20260504205603 74 138 8.0 17.0 0.00 0.00 0.00 48 1016.0
20260504205507 74 137 9.0 17.0 0.00 0.00 0.00 48 1015.9
20260504205404 74 140 9.0 18.0 0.00 0.00 0.00 49 1015.9
20260504205304 74 225 7.0 17.0 0.00 0.00 0.00 49 1015.9
20260504205103 74 198 8.0 16.0 0.00 0.00 0.00 49 1016.0
20260504205006 74 159 8.0 16.0 0.00 0.00 0.00 48 1016.0
20260504204903 74 155 8.0 19.0 0.00 0.00 0.00 48 1016.1
20260504204803 74 195 7.0 19.0 0.00 0.00 0.00 48 1016.1
20260504204703 74 123 6.0 19.0 0.00 0.00 0.00 48 1016.0
20260504204404 75 80 7.0 19.0 0.00 0.00 0.00 48 1016.1
20260504204304 75 153 7.0 19.0 0.00 0.00 0.00 49 1016.1
20260504204204 75 188 8.0 19.0 0.00 0.00 0.00 48 1016.1
20260504204103 75 105 9.0 19.0 0.00 0.00 0.00 47 1016.1
20260504204006 75 161 9.0 19.0 0.00 0.00 0.00 47 1016.1
20260504203903 75 185 8.0 16.0 0.00 0.00 0.00 47 1016.1
20260504203804 75 238 8.0 16.0 0.00 0.00 0.00 47 1016.1
20260504203703 75 170 7.0 16.0 0.00 0.00 0.00 47 1016.1
20260504203603 76 141 8.0 16.0 0.00 0.00 0.00 47 1016.1
20260504203505 76 181 9.0 16.0 0.00 0.00 0.00 46 1016.0
20260504202904 76 168 5.0 14.0 0.00 0.00 0.00 48 1016.1
20260504202803 76 131 5.0 14.0 0.00 0.00 0.00 47 1016.1
20260504202703 76 90 6.0 14.0 0.00 0.00 0.00 47 1016.1
20260504202604 76 161 6.0 15.0 0.00 0.00 0.00 46 1016.1
20260504202506 76 74 6.0 15.0 0.00 0.00 0.00 46 1016.1
20260504202404 76 211 6.0 15.0 0.00 0.00 0.00 47 1016.2
20260504202305 76 135 5.0 15.0 0.00 0.00 0.00 47 1016.1
20260504202203 77 67 6.0 15.0 0.00 0.00 0.00 46 1016.2
20260504202104 77 162 7.0 15.0 0.00 0.00 0.00 46 1016.2
20260504202005 77 92 6.0 15.0 0.00 0.00 0.00 46 1016.2
20260504201905 77 145 6.0 17.0 0.00 0.00 0.00 45 1016.2
20260504201804 77 180 7.0 17.0 0.00 0.00 0.00 45 1016.3
20260504201704 77 170 7.0 17.0 0.00 0.00 0.00 46 1016.2
20260504201405 77 169 5.0 17.0 0.00 0.00 0.00 48 1016.2
20260504201303 77 115 6.0 17.0 0.00 0.00 0.00 47 1016.3
20260504201204 77 121 7.0 17.0 0.00 0.00 0.00 47 1016.3
20260504201103 77 184 7.0 17.0 0.00 0.00 0.00 46 1016.3
20260504201006 77 141 6.0 14.0 0.00 0.00 0.00 47 1016.3
20260504200904 77 96 7.0 14.0 0.00 0.00 0.00 47 1016.3
20260504200804 77 171 8.0 14.0 0.00 0.00 0.00 46 1016.3
20260504200703 77 183 8.0 14.0 0.00 0.00 0.00 45 1016.3
20260504200604 77 208 6.0 14.0 0.00 0.00 0.00 45 1016.3
20260504200506 77 208 6.0 14.0 0.00 0.00 0.00 45 1016.3
20260504200303 77 133 7.0 14.0 0.00 0.00 0.00 44 1016.3
20260504200203 77 183 6.0 13.0 0.00 0.00 0.00 46 1016.3
20260504200105 78 135 6.0 13.0 0.00 0.00 0.00 45 1016.2
20260504200007 78 129 6.0 13.0 0.00 0.00 0.00 45 1016.2
20260504195904 78 117 5.0 13.0 0.00 0.00 0.00 44 1016.3
20260504195803 78 96 6.0 13.0 0.00 0.00 0.00 44 1016.3
20260504195704 78 21 7.0 13.0 0.00 0.00 0.00 44 1016.4
20260504195604 78 142 7.0 13.0 0.00 0.00 0.00 44 1016.3
20260504195506 78 74 5.0 13.0 0.00 0.00 0.00 45 1016.3
20260504195404 78 107 2.0 11.0 0.00 0.00 0.00 46 1016.3
20260504195304 78 122 3.0 11.0 0.00 0.00 0.00 45 1016.4
20260504194903 78 156 4.0 14.0 0.00 0.00 0.00 45 1016.4
20260504194803 78 109 3.0 14.0 0.00 0.00 0.00 44 1016.4
20260504194704 78 221 3.0 14.0 0.00 0.00 0.00 44 1016.5
20260504194303 79 159 7.0 14.0 0.00 0.00 0.00 43 1016.6
20260504194204 79 158 6.0 14.0 0.00 0.00 0.00 44 1016.5
20260504194102 79 238 5.0 11.0 0.00 0.00 0.00 44 1016.5
20260504194005 79 13 4.0 11.0 0.00 0.00 0.00 44 1016.5
20260504193904 79 229 6.0 11.0 0.00 0.00 0.00 43 1016.5
20260504193803 79 218 6.0 11.0 0.00 0.00 0.00 42 1016.5
20260504193704 79 207 6.0 15.0 0.00 0.00 0.00 43 1016.6
20260504193604 79 209 6.0 15.0 0.00 0.00 0.00 43 1016.4
20260504193506 79 161 5.0 15.0 0.00 0.00 0.00 42 1016.5
20260504193404 79 186 6.0 15.0 0.00 0.00 0.00 44 1016.4
20260504193204 79 65 8.0 15.0 0.00 0.00 0.00 41 1016.6
20260504193104 79 157 8.0 15.0 0.00 0.00 0.00 41 1016.6
20260504193005 80 137 9.0 15.0 0.00 0.00 0.00 40 1016.6
20260504192904 80 152 8.0 15.0 0.00 0.00 0.00 39 1016.6
20260504192804 80 155 7.0 11.0 0.00 0.00 0.00 39 1016.4
20260504192703 80 202 5.0 11.0 0.00 0.00 0.00 38 1016.5
20260504192603 80 176 4.0 9.0 0.00 0.00 0.00 38 1016.5
20260504192506 80 129 5.0 9.0 0.00 0.00 0.00 38 1016.5
20260504192404 80 83 3.0 9.0 0.00 0.00 0.00 38 1016.6
20260504192304 80 169 3.0 9.0 0.00 0.00 0.00 37 1016.5
20260504192204 80 175 3.0 9.0 0.00 0.00 0.00 36 1016.6
20260504192103 80 158 3.0 5.0 0.00 0.00 0.00 35 1016.6
20260504192005 80 225 4.0 5.0 0.00 0.00 0.00 37 1016.6
20260504191905 80 175 3.0 6.0 0.00 0.00 0.00 37 1016.6
20260504191804 80 188 2.0 5.0 0.00 0.00 0.00 37 1016.6
20260504191705 80 176 2.0 5.0 0.00 0.00 0.00 39 1016.6
20260504191605 80 165 1.0 5.0 0.00 0.00 0.00 38 1016.7
20260504191506 80 270 2.0 5.0 0.00 0.00 0.00 37 1016.7
20260504191403 80 139 2.0 5.0 0.00 0.00 0.00 38 1016.7
20260504191304 80 185 2.0 5.0 0.00 0.00 0.00 40 1016.7
20260504191203 80 73 1.0 5.0 0.00 0.00 0.00 37 1016.8
20260504190904 80 163 3.0 6.0 0.00 0.00 0.00 37 1016.9
20260504190804 80 213 2.0 3.0 0.00 0.00 0.00 37 1016.7
20260504190705 80 344 1.0 4.0 0.00 0.00 0.00 38 1016.8
20260504190604 80 20 1.0 4.0 0.00 0.00 0.00 40 1016.9
20260504190505 80 173 1.0 8.0 0.00 0.00 0.00 41 1016.8
20260504190303 79 189 1.0 8.0 0.00 0.00 0.00 41 1016.9
20260504190204 79 231 0.0 8.0 0.00 0.00 0.00 38 1016.9
20260504190103 79 171 1.0 8.0 0.00 0.00 0.00 37 1016.9
20260504190006 79 104 3.0 8.0 0.00 0.00 0.00 38 1016.9
20260504185804 79 102 3.0 8.0 0.00 0.00 0.00 38 1016.9
20260504185703 79 61 4.0 8.0 0.00 0.00 0.00 39 1016.9
20260504185404 79 150 3.0 8.0 0.00 0.00 0.00 41 1016.9
20260504185204 79 232 3.0 8.0 0.00 0.00 0.00 40 1016.9
20260504185104 79 231 2.0 8.0 0.00 0.00 0.00 40 1016.9
20260504185006 79 196 2.0 8.0 0.00 0.00 0.00 37 1017.0
20260504184905 79 230 2.0 8.0 0.00 0.00 0.00 40 1017.0
20260504184804 79 155 3.0 8.0 0.00 0.00 0.00 38 1017.0
20260504184704 79 172 4.0 8.0 0.00 0.00 0.00 38 1017.1
20260504184604 79 175 5.0 8.0 0.00 0.00 0.00 38 1017.1
20260504184506 79 137 5.0 9.0 0.00 0.00 0.00 38 1017.0
20260504184405 79 170 5.0 9.0 0.00 0.00 0.00 38 1017.1
20260504184103 79 152 6.0 9.0 0.00 0.00 0.00 38 1017.1
20260504183805 79 159 3.0 9.0 0.00 0.00 0.00 39 1017.0
20260504183703 79 96 2.0 9.0 0.00 0.00 0.00 39 1017.0
20260504183603 79 127 1.0 9.0 0.00 0.00 0.00 41 1017.0
20260504183506 79 92 2.0 9.0 0.00 0.00 0.00 40 1017.1
20260504183404 79 203 2.0 9.0 0.00 0.00 0.00 43 1017.1
20260504183303 79 294 3.0 9.0 0.00 0.00 0.00 38 1017.1
20260504183205 79 152 4.0 9.0 0.00 0.00 0.00 38 1017.1
20260504182903 79 168 6.0 11.0 0.00 0.00 0.00 39 1017.1
20260504182804 79 148 4.0 11.0 0.00 0.00 0.00 38 1017.1
20260504182704 78 206 2.0 10.0 0.00 0.00 0.00 41 1017.1
20260504182604 78 136 3.0 10.0 0.00 0.00 0.00 39 1017.0
20260504182505 78 108 4.0 10.0 0.00 0.00 0.00 40 1017.1
20260504182404 78 94 2.0 10.0 0.00 0.00 0.00 39 1017.1
20260504182204 78 106 5.0 10.0 0.00 0.00 0.00 39 1017.1
20260504182103 78 133 6.0 10.0 0.00 0.00 0.00 40 1017.1
20260504182005 78 166 4.0 10.0 0.00 0.00 0.00 39 1017.1
20260504181906 78 88 2.0 8.0 0.00 0.00 0.00 37 1017.0
20260504181806 78 296 3.0 8.0 0.00 0.00 0.00 39 1017.0
20260504181704 78 125 4.0 9.0 0.00 0.00 0.00 39 1017.1
20260504181604 78 68 4.0 9.0 0.00 0.00 0.00 40 1017.0
20260504181506 78 99 4.0 9.0 0.00 0.00 0.00 40 1017.0
20260504181404 78 96 2.0 10.0 0.00 0.00 0.00 41 1017.1
20260504181305 78 191 2.0 10.0 0.00 0.00 0.00 38 1017.1
20260504181204 78 110 3.0 10.0 0.00 0.00 0.00 39 1017.2
20260504181103 78 103 4.0 10.0 0.00 0.00 0.00 40 1017.1
20260504181005 78 101 5.0 10.0 0.00 0.00 0.00 40 1017.2
20260504180704 78 88 5.0 10.0 0.00 0.00 0.00 39 1017.2
20260504180606 78 82 5.0 10.0 0.00 0.00 0.00 38 1017.2
20260504180508 78 82 4.0 10.0 0.00 0.00 0.00 39 1017.2
20260504180304 78 244 3.0 10.0 0.00 0.00 0.00 39 1017.2
20260504180205 78 212 2.0 10.0 0.00 0.00 0.00 40 1017.3
20260504180104 78 228 2.0 10.0 0.00 0.00 0.00 40 1017.3
20260504180007 78 232 3.0 10.0 0.00 0.00 0.00 39 1017.4
20260504175904 78 101 3.0 10.0 0.00 0.00 0.00 39 1017.2
20260504175604 78 104 4.0 10.0 0.00 0.00 0.00 40 1017.2
20260504175506 78 74 2.0 7.0 0.00 0.00 0.00 41 1017.2
20260504175404 78 48 2.0 7.0 0.00 0.00 0.00 43 1017.2
20260504175305 78 313 3.0 7.0 0.00 0.00 0.00 42 1017.3
20260504175204 78 67 4.0 7.0 0.00 0.00 0.00 41 1017.2
20260504175105 78 149 4.0 7.0 0.00 0.00 0.00 39 1017.2
20260504175006 78 201 3.0 9.0 0.00 0.00 0.00 40 1017.2
20260504174903 78 163 3.0 10.0 0.00 0.00 0.00 39 1017.2
20260504174703 78 110 2.0 10.0 0.00 0.00 0.00 40 1017.2
20260504174604 78 80 3.0 10.0 0.00 0.00 0.00 40 1017.3
20260504174505 78 167 4.0 10.0 0.00 0.00 0.00 39 1017.3
20260504174404 78 188 4.0 10.0 0.00 0.00 0.00 40 1017.3
20260504174303 78 169 4.0 10.0 0.00 0.00 0.00 39 1017.3
20260504174204 78 189 6.0 10.0 0.00 0.00 0.00 40 1017.4
20260504174104 78 178 5.0 10.0 0.00 0.00 0.00 39 1017.3
20260504174006 78 153 4.0 8.0 0.00 0.00 0.00 40 1017.3
20260504173904 78 135 3.0 8.0 0.00 0.00 0.00 40 1017.4